Home > Weather > Black Mountain > Past weeks

Flag for USA Weather for the Past 2 Weeks in Black Mountain, North Carolina, USA

Now
73 °F

Thundershowers. Sunny.


Feels Like: 77 °F
Forecast: 56 / 71 °F
Wind: 3 mph from Southwest

Location: Asheville Regional Airport

Current Time: May 2, 2016 at 9:22:03 PM

Latest Report: May 2, 2016 at 7:54 PM


Visibility: 10 mi

Pressure: 29.85 "Hg (27.44 "Hg at 729m altitude)

Humidity: 57%

Dew Point: 57 °F

Location of Black MountainLocation

Historic Weather in Black Mountain — Graph

°F

Black Mountain Temperature Yesterday

Maximum temperature yesterday: 75 °F (at 12:54 PM)
Minimum temperature yesterday: 59 °F (at 12:03 AM)
Average temperature yesterday: 66 °F

High & Low Weather Summary for the Past Weeks

 TemperatureHumidityPressure
High82 °F (Apr 28, 1:54 PM)96% (May 2, 7:54 AM)30.38 "Hg (May 2, 7:54 AM)
Low39 °F (Apr 18, 6:54 AM)15% (Apr 18, 4:54 PM)29.79 "Hg (Apr 27, 4:54 PM)
Average65 °F61%30.01 "Hg
* Reported Apr 17 7:54 PM — May 2 7:54 PM, Black Mountain, Weather by CustomWeather, © 2016

Note: Actual official high and low records may vary slightly from our data, if they occured in-between our weather recording intervals... More about our weather records

Advertising

Black Mountain Weather History for the Previous 24 Hours

Scroll right to see more
 ConditionsComfort  
Time TempWeatherWind HumidityBarometerVisibility
7:54 PM
Mon, May 2
73 °FThundershowers. Sunny.3 mph57%29.85 "Hg10 mi
6:54 PM76 °FThundershowers. Broken clouds.6 mph54%29.85 "Hg10 mi
5:54 PM78 °FScattered clouds.14 mph50%29.86 "Hg10 mi
4:54 PM77 °FLight rain. Passing clouds.12 mph54%29.88 "Hg10 mi
3:54 PM75 °FLight rain. Sunny.13 mph58%29.90 "Hg10 mi
2:54 PM74 °FLight rain. Broken clouds.5 mph62%29.93 "Hg10 mi
1:54 PM77 °FThundershowers. Partly sunny.7 mph52%29.93 "Hg10 mi
12:54 PM78 °FPartly sunny.7 mph46%29.94 "Hg10 mi
11:54 AM75 °FSunny.No wind50%29.98 "Hg10 mi
10:54 AM74 °FScattered clouds.No wind53%29.98 "Hg10 mi
9:54 AM68 °FPartly sunny.No wind73%30.01 "Hg10 mi
8:54 AM65 °FPartly sunny.No wind85%30.02 "Hg10 mi
7:54 AM59 °FFog.No wind96%30.02 "Hg0 mi
7:00 AM58 °FFog.No wind93%30.07 "Hg1 mi
5:54 AM59 °FPassing clouds.No wind93%29.99 "Hg8 mi
4:54 AM60 °FClear.No wind90%30.00 "Hg10 mi
3:54 AM62 °FPassing clouds.No wind86%29.99 "Hg10 mi
2:54 AM63 °FPassing clouds.3 mph81%29.98 "Hg10 mi
1:54 AM63 °FClear.No wind90%29.99 "Hg10 mi
12:54 AM65 °FClear.No wind87%29.97 "Hg10 mi
11:54 PM
Sun, May 1
67 °FPassing clouds.No wind81%29.96 "Hg10 mi
10:54 PM67 °FClear.5 mph81%29.97 "Hg10 mi
9:54 PM69 °FClear.8 mph76%29.99 "Hg10 mi
Weather by CustomWeather, © 2016

See weather overviewHow to use our weather pages